Location: Vancouver
(49.2500°N, 123.1330°W)
Time: 12:52:02
(UTC-07:00)

Transit 2A Rocket - Visible Passes

Search period start: 26 July 2016 00:00
Search period end: 05 August 2016 00:00
Orbit: 584 x 920 km, 66.7° (Epoch: 25 July)

Date Brightness Start Highest point End Pass type
(mag) Time Alt. Az. Time Alt. Az. Time Alt. Az.
27 Jul 7.7 04:26:07 10° SE 04:29:24 15° ESE 04:32:46 10° ENE visible
29 Jul 6.8 04:41:35 10° S 04:46:44 33° ESE 04:52:07 10° NE visible
30 Jul 7.3 04:00:27 10° SSE 04:04:44 21° ESE 04:09:12 10° ENE visible
31 Jul 7.6 03:20:14 10° SE 03:22:53 13° E 03:25:34 10° ENE visible
31 Jul 5.7 04:58:34 10° SSW 05:04:24 68° ESE 05:10:31 10° NE visible
01 Aug 6.2 04:16:40 10° S 04:22:12 44° ESE 04:28:00 10° NE visible
02 Aug 6.8 03:35:36 12° SSE 03:40:08 29° ESE 03:45:18 10° NE visible
03 Aug 7.3 02:54:39 11° SE 02:58:11 19° ESE 03:02:14 10° ENE visible
03 Aug 5.4 04:34:35 13° SSW 04:40:01 87° SE 04:46:14 10° NE visible
04 Aug 7.6 02:14:41 10° ESE 02:16:20 11° E 02:18:00 10° E visible
04 Aug 5.7 03:53:35 20° SSW 03:57:44 59° ESE 04:03:47 10° NE visible
